Find OneWeb SL0133

NORAD ID: 47263 Int'l Des: 2020-100 Owner: ONEWEB Country: UK Constellation: oneweb operational
LEOCIRCULARPOLARONEWEB_TYPE

現在のビュー

3D地球を読み込み中...

About OneWeb SL0133

OneWeb SL0133 (NORAD 47263) is a oneweb constellation satellite launched Dec 18, 2020 by ONEWEB of UK. It operates in LEO, CIRCULAR, POLAR, ONEWEB_TYPE orbit with a mass of 148.00 kg.

OneWeb SL0133について

説明を読み込み中...

次回通過

Passes for default location (London). Set your location on the main map for personalized predictions.

高度履歴

Loading altitude history...

軌道要素

1 47263U 20100F 26195.89614843 -.00000305 00000-0 -88397-3 0 9999
2 47263 87.8969 345.1410 0001842 96.7282 263.4056 13.12441983268163
Epoch: Jul 14, 2026 • Age: 7 hours

現在のステータス

高度 1243.4 km
遠地点 / 近地点 N/A
速度 7.23 km/s
衛星直下点 -81.04°S, 27.55°W
打ち上げ日 Dec 18, 2020
運用期間 5.5 years
タイプ internet

技術仕様

分類 Payload
質量 148.00 kg
乾燥質量 140.00 kg
総質量 148.00 kg
長さ 1.30 m
直径 1.00 m
スパン 5.00 m
形状 Trapezoid+2 pan
製造者 ONEWUS
バスタイプ ARROW
フェーズステータス In Orbit
所有者/国 ONEWEB/UK

Most Searched